<?xml version="1.0" encoding="UTF-8" standalone="no" ?><gpx xmlns="http://www.topografix.com/GPX/1/1" xmlns:gpxx="http://www.garmin.com/xmlschemas/GpxExtensions/v3" xmlns:wptx1="http://www.garmin.com/xmlschemas/WaypointExtension/v1" xmlns:gpxtpx="http://www.garmin.com/xmlschemas/TrackPointExtension/v1" creator="GuideVTT.com" version="1.1" xmlns:xsi="http://www.w3.org/2001/XMLSchema-instance" xsi:schemaLocation="http://www.topografix.com/GPX/1/1 http://www.topografix.com/GPX/1/1/gpx.xsd http://www.garmin.com/xmlschemas/GpxExtensions/v3 http://www8.garmin.com/xmlschemas/GpxExtensionsv3.xsd http://www.garmin.com/xmlschemas/WaypointExtension/v1 http://www8.garmin.com/xmlschemas/WaypointExtensionv1.xsd http://www.garmin.com/xmlschemas/TrackPointExtension/v1 http://www.garmin.com/xmlschemas/TrackPointExtensionv1.xsd">
<metadata><link href="http://www.garmin.com"><text>Garmin International</text></link><time>2013-06-22T15:13:50Z</time></metadata>
<trk><name>marche2.gpx</name><extensions><gpxx:TrackExtension><gpxx:DisplayColor>Cyan</gpxx:DisplayColor></gpxx:TrackExtension></extensions><trkseg>
<trkpt lat="31.04596250" lon="-6.10406566"><ele>10</ele><time>1989-12-31T00:00:00Z</time></trkpt>
<trkpt lat="31.12226564" lon="-6.08965818"><ele>10</ele><time>1989-12-31T00:00:00Z</time></trkpt>
<trkpt lat="31.02995147" lon="-6.06562953"><ele>10</ele><time>1989-12-31T00:00:00Z</time></trkpt>
<trkpt lat="31.21511852" lon="-5.85317317"><ele>13</ele><time>1989-12-31T00:00:00Z</time></trkpt>
<trkpt lat="31.04107493" lon="-5.89785023"><ele>11</ele><time>1989-12-31T00:00:00Z</time></trkpt>
<trkpt lat="31.12100484" lon="-5.83782616"><ele>12</ele><time>1989-12-31T00:00:00Z</time></trkpt>
<trkpt lat="31.14763850" lon="-5.83634290"><ele>13</ele><time>1989-12-31T00:00:00Z</time></trkpt>
<trkpt lat="31.03246420" lon="-6.10884754"><ele>10</ele><time>1989-12-31T00:00:00Z</time></trkpt>
<trkpt lat="31.01528691" lon="-5.95961932"><ele>11</ele><time>1989-12-31T00:00:00Z</time></trkpt>
<trkpt lat="" lon=""><ele>0</ele><time>Year-Month#-Day#THour:Min:SecZ</time></trkpt>
<trkpt lat="31.12265985" lon="-6.08920572"><ele>1569.009033</ele><time>1989-12-31T00:00:00Z</time></trkpt>
<trkpt lat="31.12213581" lon="-6.08962205"><ele>1572.854248</ele><time>1989-12-31T00:00:00Z</time></trkpt>
<trkpt lat="31.12234133" lon="-6.08959406"><ele>1573.334961</ele><time>1989-12-31T00:00:00Z</time></trkpt>
<trkpt lat="31.12214947" lon="-6.08974057"><ele>1577.180176</ele><time>1989-12-31T00:00:00Z</time></trkpt>
<trkpt lat="31.12144774" lon="-6.09018272"><ele>1577.180176</ele><time>1989-12-31T00:00:00Z</time></trkpt>
<trkpt lat="31.12129435" lon="-6.09032513"><ele>1576.699463</ele><time>1989-12-31T00:00:00Z</time></trkpt>
<trkpt lat="31.12055833" lon="-6.09056661"><ele>1579.102539</ele><time>1989-12-31T00:00:00Z</time></trkpt>
<trkpt lat="31.12009984" lon="-6.09063610"><ele>1578.141357</ele><time>1989-12-31T00:00:00Z</time></trkpt>
<trkpt lat="31.11977806" lon="-6.09049830"><ele>1578.141357</ele><time>1989-12-31T00:00:00Z</time></trkpt>
<trkpt lat="31.11946810" lon="-6.09030258"><ele>1576.699463</ele><time>1989-12-31T00:00:00Z</time></trkpt>
<trkpt lat="31.11911656" lon="-6.09028741"><ele>1574.776855</ele><time>1989-12-31T00:00:00Z</time></trkpt>
<trkpt lat="31.11792801" lon="-6.09096064"><ele>1571.412109</ele><time>1989-12-31T00:00:00Z</time></trkpt>
<trkpt lat="31.11779993" lon="-6.09098520"><ele>1571.892822</ele><time>1989-12-31T00:00:00Z</time></trkpt>
<trkpt lat="31.11776037" lon="-6.09104069"><ele>1572.854248</ele><time>1989-12-31T00:00:00Z</time></trkpt>
<trkpt lat="31.11756206" lon="-6.09117622"><ele>1573.334961</ele><time>1989-12-31T00:00:00Z</time></trkpt>
<trkpt lat="31.11679276" lon="-6.09155140"><ele>1577.180176</ele><time>1989-12-31T00:00:00Z</time></trkpt>
<trkpt lat="31.11615499" lon="-6.09199815"><ele>1582.947998</ele><time>1989-12-31T00:00:00Z</time></trkpt>
<trkpt lat="31.11563799" lon="-6.09243485"><ele>1588.235352</ele><time>1989-12-31T00:00:00Z</time></trkpt>
<trkpt lat="31.11511613" lon="-6.09247760"><ele>1582.467529</ele><time>1989-12-31T00:00:00Z</time></trkpt>
<trkpt lat="31.11448456" lon="-6.09296819"><ele>1580.544922</ele><time>1989-12-31T00:00:00Z</time></trkpt>
<trkpt lat="31.11329114" lon="-6.09296031"><ele>1584.390137</ele><time>1989-12-31T00:00:00Z</time></trkpt>
<trkpt lat="31.11310632" lon="-6.09311144"><ele>1584.87085</ele><time>1989-12-31T00:00:00Z</time></trkpt>
<trkpt lat="31.11279787" lon="-6.09318621"><ele>1587.273926</ele><time>1989-12-31T00:00:00Z</time></trkpt>
<trkpt lat="31.11253560" lon="-6.09314262"><ele>1589.196533</ele><time>1989-12-31T00:00:00Z</time></trkpt>
<trkpt lat="31.11240199" lon="-6.09318520"><ele>1590.638428</ele><time>1989-12-31T00:00:00Z</time></trkpt>
<trkpt lat="31.11217618" lon="-6.09320574"><ele>1591.599854</ele><time>1989-12-31T00:00:00Z</time></trkpt>
<trkpt lat="31.11160529" lon="-6.09308872"><ele>1593.522461</ele><time>1989-12-31T00:00:00Z</time></trkpt>
<trkpt lat="31.11124495" lon="-6.09312477"><ele>1594.964355</ele><time>1989-12-31T00:00:00Z</time></trkpt>
<trkpt lat="31.11096952" lon="-6.09304681"><ele>1593.041748</ele><time>1989-12-31T00:00:00Z</time></trkpt>
<trkpt lat="31.11067314" lon="-6.09291706"><ele>1592.561279</ele><time>1989-12-31T00:00:00Z</time></trkpt>
<trkpt lat="31.11052168" lon="-6.09298076"><ele>1594.003174</ele><time>1989-12-31T00:00:00Z</time></trkpt>
<trkpt lat="31.11004709" lon="-6.09332467"><ele>1599.290527</ele><time>1989-12-31T00:00:00Z</time></trkpt>
<trkpt lat="31.10892626" lon="-6.09369029"><ele>1613.229736</ele><time>1989-12-31T00:00:00Z</time></trkpt>
<trkpt lat="31.10882048" lon="-6.09385827"><ele>1615.152344</ele><time>1989-12-31T00:00:00Z</time></trkpt>
<trkpt lat="31.10870674" lon="-6.09398114"><ele>1622.362061</ele><time>1989-12-31T00:00:00Z</time></trkpt>
<trkpt lat="31.10743353" lon="-6.09345468"><ele>1631.494629</ele><time>1989-12-31T00:00:00Z</time></trkpt>
<trkpt lat="31.10685023" lon="-6.09352752"><ele>1633.897949</ele><time>1989-12-31T00:00:00Z</time></trkpt>
<trkpt lat="31.10666374" lon="-6.09348670"><ele>1636.30127</ele><time>1989-12-31T00:00:00Z</time></trkpt>
<trkpt lat="31.10648235" lon="-6.09340740"><ele>1637.262451</ele><time>1989-12-31T00:00:00Z</time></trkpt>
<trkpt lat="31.10625328" lon="-6.09337295"><ele>1635.820557</ele><time>1989-12-31T00:00:00Z</time></trkpt>
<trkpt lat="31.10617105" lon="-6.09331478"><ele>1634.378662</ele><time>1989-12-31T00:00:00Z</time></trkpt>
<trkpt lat="31.10584265" lon="-6.09331135"><ele>1636.781738</ele><time>1989-12-31T00:00:00Z</time></trkpt>
<trkpt lat="31.10578724" lon="-6.09341780"><ele>1637.743164</ele><time>1989-12-31T00:00:00Z</time></trkpt>
<trkpt lat="31.10546990" lon="-6.09346968"><ele>1644.472412</ele><time>1989-12-31T00:00:00Z</time></trkpt>
<trkpt lat="31.10495768" lon="-6.09286769"><ele>1653.124268</ele><time>1989-12-31T00:00:00Z</time></trkpt>
<trkpt lat="31.10468075" lon="-6.09264909"><ele>1656.008057</ele><time>1989-12-31T00:00:00Z</time></trkpt>
<trkpt lat="31.10403299" lon="-6.09239093"><ele>1662.256836</ele><time>1989-12-31T00:00:00Z</time></trkpt>
<trkpt lat="31.10371515" lon="-6.09238012"><ele>1665.140869</ele><time>1989-12-31T00:00:00Z</time></trkpt>
<trkpt lat="31.10288811" lon="-6.09195113"><ele>1672.350586</ele><time>1989-12-31T00:00:00Z</time></trkpt>
<trkpt lat="31.10269675" lon="-6.09172759"><ele>1674.273193</ele><time>1989-12-31T00:00:00Z</time></trkpt>
<trkpt lat="31.10257907" lon="-6.09118964"><ele>1681.002686</ele><time>1989-12-31T00:00:00Z</time></trkpt>
<trkpt lat="31.10238008" lon="-6.09092460"><ele>1680.04126</ele><time>1989-12-31T00:00:00Z</time></trkpt>
<trkpt lat="31.10173342" lon="-6.09064414"><ele>1679.079834</ele><time>1989-12-31T00:00:00Z</time></trkpt>
<trkpt lat="31.10128842" lon="-6.09109232"><ele>1686.289795</ele><time>1989-12-31T00:00:00Z</time></trkpt>
<trkpt lat="31.10112791" lon="-6.09118838"><ele>1687.250977</ele><time>1989-12-31T00:00:00Z</time></trkpt>
<trkpt lat="31.10109581" lon="-6.09117698"><ele>1687.731689</ele><time>1989-12-31T00:00:00Z</time></trkpt>
<trkpt lat="31.10100327" lon="-6.09128251"><ele>1688.212402</ele><time>1989-12-31T00:00:00Z</time></trkpt>
<trkpt lat="31.10062801" lon="-6.09117304"><ele>1689.654297</ele><time>1989-12-31T00:00:00Z</time></trkpt>
<trkpt lat="31.10037262" lon="-6.09113398"><ele>1689.173584</ele><time>1989-12-31T00:00:00Z</time></trkpt>
<trkpt lat="31.10031587" lon="-6.09119182"><ele>1688.693115</ele><time>1989-12-31T00:00:00Z</time></trkpt>
<trkpt lat="31.10017237" lon="-6.09120992"><ele>1688.693115</ele><time>1989-12-31T00:00:00Z</time></trkpt>
<trkpt lat="31.10007481" lon="-6.09114563"><ele>1689.173584</ele><time>1989-12-31T00:00:00Z</time></trkpt>
<trkpt lat="31.10007548" lon="-6.09114563"><ele>1692.057861</ele><time>1989-12-31T00:00:00Z</time></trkpt>
<trkpt lat="31.10002460" lon="-6.09116206"><ele>1691.096191</ele><time>1989-12-31T00:00:00Z</time></trkpt>
<trkpt lat="31.09942915" lon="-6.09104446"><ele>1699.267578</ele><time>1989-12-31T00:00:00Z</time></trkpt>
<trkpt lat="31.09946343" lon="-6.09117044"><ele>1702.151367</ele><time>1989-12-31T00:00:00Z</time></trkpt>
<trkpt lat="31.09933091" lon="-6.09159105"><ele>1707.919434</ele><time>1989-12-31T00:00:00Z</time></trkpt>
<trkpt lat="31.09839507" lon="-6.09223042"><ele>1703.112793</ele><time>1989-12-31T00:00:00Z</time></trkpt>
<trkpt lat="31.09824470" lon="-6.09230024"><ele>1698.786865</ele><time>1989-12-31T00:00:00Z</time></trkpt>
<trkpt lat="31.09807698" lon="-6.09232044"><ele>1699.267578</ele><time>1989-12-31T00:00:00Z</time></trkpt>
<trkpt lat="31.09770181" lon="-6.09254935"><ele>1700.709473</ele><time>1989-12-31T00:00:00Z</time></trkpt>
<trkpt lat="31.09751363" lon="-6.09248179"><ele>1697.825684</ele><time>1989-12-31T00:00:00Z</time></trkpt>
<trkpt lat="31.09682187" lon="-6.09299870"><ele>1699.267578</ele><time>1989-12-31T00:00:00Z</time></trkpt>
<trkpt lat="31.09673353" lon="-6.09296786"><ele>1696.383789</ele><time>1989-12-31T00:00:00Z</time></trkpt>
<trkpt lat="31.09635031" lon="-6.09301731"><ele>1697.344971</ele><time>1989-12-31T00:00:00Z</time></trkpt>
<trkpt lat="31.09612500" lon="-6.09309518"><ele>1694.460938</ele><time>1989-12-31T00:00:00Z</time></trkpt>
<trkpt lat="31.09576190" lon="-6.09334756"><ele>1695.422363</ele><time>1989-12-31T00:00:00Z</time></trkpt>
<trkpt lat="31.09550650" lon="-6.09334772"><ele>1696.864258</ele><time>1989-12-31T00:00:00Z</time></trkpt>
<trkpt lat="31.09510099" lon="-6.09343733"><ele>1697.344971</ele><time>1989-12-31T00:00:00Z</time></trkpt>
<trkpt lat="31.09478055" lon="-6.09368417"><ele>1700.229004</ele><time>1989-12-31T00:00:00Z</time></trkpt>
<trkpt lat="31.09432600" lon="-6.09378903"><ele>1705.996582</ele><time>1989-12-31T00:00:00Z</time></trkpt>
<trkpt lat="31.09422055" lon="-6.09374067"><ele>1706.477295</ele><time>1989-12-31T00:00:00Z</time></trkpt>
<trkpt lat="31.09413061" lon="-6.09361695"><ele>1709.842041</ele><time>1989-12-31T00:00:00Z</time></trkpt>
<trkpt lat="31.09404587" lon="-6.09357990"><ele>1711.28418</ele><time>1989-12-31T00:00:00Z</time></trkpt>
<trkpt lat="31.09388955" lon="-6.09368870"><ele>1711.28418</ele><time>1989-12-31T00:00:00Z</time></trkpt>
<trkpt lat="31.09327784" lon="-6.09385483"><ele>1718.013184</ele><time>1989-12-31T00:00:00Z</time></trkpt>
<trkpt lat="31.09316929" lon="-6.09385399"><ele>1718.974609</ele><time>1989-12-31T00:00:00Z</time></trkpt>
<trkpt lat="31.09276445" lon="-6.09399363"><ele>1725.703857</ele><time>1989-12-31T00:00:00Z</time></trkpt>
<trkpt lat="31.09242657" lon="-6.09405164"><ele>1728.587891</ele><time>1989-12-31T00:00:00Z</time></trkpt>
<trkpt lat="31.09049790" lon="-6.09449655"><ele>1735.316895</ele><time>1989-12-31T00:00:00Z</time></trkpt>
<trkpt lat="31.09034518" lon="-6.09459898"><ele>1736.27832</ele><time>1989-12-31T00:00:00Z</time></trkpt>
<trkpt lat="31.09024627" lon="-6.09461943"><ele>1738.200928</ele><time>1989-12-31T00:00:00Z</time></trkpt>
<trkpt lat="31.09010160" lon="-6.09474029"><ele>1742.5271</ele><time>1989-12-31T00:00:00Z</time></trkpt>
<trkpt lat="31.08990404" lon="-6.09505780"><ele>1744.930176</ele><time>1989-12-31T00:00:00Z</time></trkpt>
<trkpt lat="31.08983338" lon="-6.09525218"><ele>1746.852783</ele><time>1989-12-31T00:00:00Z</time></trkpt>
<trkpt lat="31.08961679" lon="-6.09515436"><ele>1748.294678</ele><time>1989-12-31T00:00:00Z</time></trkpt>
<trkpt lat="31.08939274" lon="-6.09515050"><ele>1749.256104</ele><time>1989-12-31T00:00:00Z</time></trkpt>
<trkpt lat="31.08814836" lon="-6.09532150"><ele>1760.791992</ele><time>1989-12-31T00:00:00Z</time></trkpt>
<trkpt lat="31.08775483" lon="-6.09527623"><ele>1765.11792</ele><time>1989-12-31T00:00:00Z</time></trkpt>
<trkpt lat="31.08754009" lon="-6.09531714"><ele>1769.443848</ele><time>1989-12-31T00:00:00Z</time></trkpt>
<trkpt lat="31.08695403" lon="-6.09524011"><ele>1770.885742</ele><time>1989-12-31T00:00:00Z</time></trkpt>
<trkpt lat="31.08641717" lon="-6.09509594"><ele>1774.250488</ele><time>1989-12-31T00:00:00Z</time></trkpt>
<trkpt lat="31.08613939" lon="-6.09515545"><ele>1774.250488</ele><time>1989-12-31T00:00:00Z</time></trkpt>
<trkpt lat="31.08584854" lon="-6.09514782"><ele>1778.576416</ele><time>1989-12-31T00:00:00Z</time></trkpt>
<trkpt lat="31.08536867" lon="-6.09527011"><ele>1786.266846</ele><time>1989-12-31T00:00:00Z</time></trkpt>
<trkpt lat="31.08520263" lon="-6.09501396"><ele>1787.228027</ele><time>1989-12-31T00:00:00Z</time></trkpt>
<trkpt lat="31.08524286" lon="-6.09498203"><ele>1787.228027</ele><time>1989-12-31T00:00:00Z</time></trkpt>
<trkpt lat="31.08514203" lon="-6.09498647"><ele>1790.112305</ele><time>1989-12-31T00:00:00Z</time></trkpt>
<trkpt lat="31.08458648" lon="-6.09507641"><ele>1794.918701</ele><time>1989-12-31T00:00:00Z</time></trkpt>
<trkpt lat="31.08455521" lon="-6.09495353"><ele>1795.880127</ele><time>1989-12-31T00:00:00Z</time></trkpt>
<trkpt lat="31.08440534" lon="-6.09508890"><ele>1798.763916</ele><time>1989-12-31T00:00:00Z</time></trkpt>
<trkpt lat="31.08413980" lon="-6.09504665"><ele>1799.725342</ele><time>1989-12-31T00:00:00Z</time></trkpt>
<trkpt lat="31.08394610" lon="-6.09510943"><ele>1801.647949</ele><time>1989-12-31T00:00:00Z</time></trkpt>
<trkpt lat="31.08375139" lon="-6.09522368"><ele>1803.570557</ele><time>1989-12-31T00:00:00Z</time></trkpt>
<trkpt lat="31.08365709" lon="-6.09524128"><ele>1807.416016</ele><time>1989-12-31T00:00:00Z</time></trkpt>
<trkpt lat="31.08346565" lon="-6.09513148"><ele>1812.703125</ele><time>1989-12-31T00:00:00Z</time></trkpt>
<trkpt lat="31.08343053" lon="-6.09515905"><ele>1812.703125</ele><time>1989-12-31T00:00:00Z</time></trkpt>
<trkpt lat="31.08342893" lon="-6.09526609"><ele>1813.183838</ele><time>1989-12-31T00:00:00Z</time></trkpt>
<trkpt lat="31.08304764" lon="-6.09530188"><ele>1816.54834</ele><time>1989-12-31T00:00:00Z</time></trkpt>
<trkpt lat="31.08296114" lon="-6.09527607"><ele>1817.509521</ele><time>1989-12-31T00:00:00Z</time></trkpt>
<trkpt lat="31.08284220" lon="-6.09538260"><ele>1817.990234</ele><time>1989-12-31T00:00:00Z</time></trkpt>
<trkpt lat="31.08283080" lon="-6.09541319"><ele>1821.35498</ele><time>1989-12-31T00:00:00Z</time></trkpt>
<trkpt lat="31.08208230" lon="-6.09553088"><ele>1823.758301</ele><time>1989-12-31T00:00:00Z</time></trkpt>
<trkpt lat="31.08183964" lon="-6.09561679"><ele>1828.084229</ele><time>1989-12-31T00:00:00Z</time></trkpt>
<trkpt lat="31.08165985" lon="-6.09563758"><ele>1830.006836</ele><time>1989-12-31T00:00:00Z</time></trkpt>
<trkpt lat="31.08127965" lon="-6.09581351"><ele>1827.123047</ele><time>1989-12-31T00:00:00Z</time></trkpt>
<trkpt lat="31.08054179" lon="-6.09587747"><ele>1831.929443</ele><time>1989-12-31T00:00:00Z</time></trkpt>
<trkpt lat="31.08038949" lon="-6.09591502"><ele>1831.929443</ele><time>1989-12-31T00:00:00Z</time></trkpt>
<trkpt lat="31.07975833" lon="-6.09641944"><ele>1830.968262</ele><time>1989-12-31T00:00:00Z</time></trkpt>
<trkpt lat="31.07931660" lon="-6.09651533"><ele>1831.929443</ele><time>1989-12-31T00:00:00Z</time></trkpt>
<trkpt lat="31.07916439" lon="-6.09662161"><ele>1833.371338</ele><time>1989-12-31T00:00:00Z</time></trkpt>
<trkpt lat="31.07892098" lon="-6.09667911"><ele>1833.852051</ele><time>1989-12-31T00:00:00Z</time></trkpt>
<trkpt lat="31.07881495" lon="-6.09665757"><ele>1833.852051</ele><time>1989-12-31T00:00:00Z</time></trkpt>
<trkpt lat="31.07826711" lon="-6.09717616"><ele>1836.255615</ele><time>1989-12-31T00:00:00Z</time></trkpt>
<trkpt lat="31.07826283" lon="-6.09724858"><ele>1838.178223</ele><time>1989-12-31T00:00:00Z</time></trkpt>
<trkpt lat="31.07782982" lon="-6.09764881"><ele>1840.10083</ele><time>1989-12-31T00:00:00Z</time></trkpt>
<trkpt lat="31.07727075" lon="-6.09796599"><ele>1842.023438</ele><time>1989-12-31T00:00:00Z</time></trkpt>
<trkpt lat="31.07716916" lon="-6.09798141"><ele>1843.465332</ele><time>1989-12-31T00:00:00Z</time></trkpt>
<trkpt lat="31.07677932" lon="-6.09821895"><ele>1843.465332</ele><time>1989-12-31T00:00:00Z</time></trkpt>
<trkpt lat="31.07675778" lon="-6.09815139"><ele>1845.387939</ele><time>1989-12-31T00:00:00Z</time></trkpt>
<trkpt lat="31.07669156" lon="-6.09820453"><ele>1844.907227</ele><time>1989-12-31T00:00:00Z</time></trkpt>
<trkpt lat="31.07624296" lon="-6.09835206"><ele>1848.752441</ele><time>1989-12-31T00:00:00Z</time></trkpt>
<trkpt lat="31.07600290" lon="-6.09831702"><ele>1849.713867</ele><time>1989-12-31T00:00:00Z</time></trkpt>
<trkpt lat="31.07585915" lon="-6.09835004"><ele>1849.713867</ele><time>1989-12-31T00:00:00Z</time></trkpt>
<trkpt lat="31.07560300" lon="-6.09832834"><ele>1851.155762</ele><time>1989-12-31T00:00:00Z</time></trkpt>
<trkpt lat="31.07555447" lon="-6.09835977"><ele>1851.155762</ele><time>1989-12-31T00:00:00Z</time></trkpt>
<trkpt lat="31.07529572" lon="-6.09830210"><ele>1855.001221</ele><time>1989-12-31T00:00:00Z</time></trkpt>
<trkpt lat="31.07454445" lon="-6.09820747"><ele>1859.807617</ele><time>1989-12-31T00:00:00Z</time></trkpt>
<trkpt lat="31.07415142" lon="-6.09826094"><ele>1860.769043</ele><time>1989-12-31T00:00:00Z</time></trkpt>
<trkpt lat="31.07400583" lon="-6.09831417"><ele>1861.249756</ele><time>1989-12-31T00:00:00Z</time></trkpt>
<trkpt lat="31.07327820" lon="-6.09846119"><ele>1866.056152</ele><time>1989-12-31T00:00:00Z</time></trkpt>
<trkpt lat="31.07317971" lon="-6.09845758"><ele>1866.536865</ele><time>1989-12-31T00:00:00Z</time></trkpt>
<trkpt lat="31.07310000" lon="-6.09842062"><ele>1865.575684</ele><time>1989-12-31T00:00:00Z</time></trkpt>
<trkpt lat="31.07247756" lon="-6.09846907"><ele>1870.382324</ele><time>1989-12-31T00:00:00Z</time></trkpt>
<trkpt lat="31.07238485" lon="-6.09857476"><ele>1870.863037</ele><time>1989-12-31T00:00:00Z</time></trkpt>
<trkpt lat="31.07215368" lon="-6.09837611"><ele>1872.785645</ele><time>1989-12-31T00:00:00Z</time></trkpt>
<trkpt lat="31.07148615" lon="-6.09818174"><ele>1878.072754</ele><time>1989-12-31T00:00:00Z</time></trkpt>
<trkpt lat="31.07131046" lon="-6.09837335"><ele>1879.033936</ele><time>1989-12-31T00:00:00Z</time></trkpt>
<trkpt lat="31.07111542" lon="-6.09848591"><ele>1880.956787</ele><time>1989-12-31T00:00:00Z</time></trkpt>
<trkpt lat="31.07043698" lon="-6.09876503"><ele>1886.724609</ele><time>1989-12-31T00:00:00Z</time></trkpt>
<trkpt lat="31.07019877" lon="-6.09869412"><ele>1889.12793</ele><time>1989-12-31T00:00:00Z</time></trkpt>
<trkpt lat="31.06889321" lon="-6.09881918"><ele>1904.028564</ele><time>1989-12-31T00:00:00Z</time></trkpt>
<trkpt lat="31.06847126" lon="-6.09893527"><ele>1909.315674</ele><time>1989-12-31T00:00:00Z</time></trkpt>
<trkpt lat="31.06844192" lon="-6.09887886"><ele>1910.276855</ele><time>1989-12-31T00:00:00Z</time></trkpt>
<trkpt lat="31.06848593" lon="-6.09873787"><ele>1913.160889</ele><time>1989-12-31T00:00:00Z</time></trkpt>
<trkpt lat="31.06840890" lon="-6.09885346"><ele>1916.525635</ele><time>1989-12-31T00:00:00Z</time></trkpt>
<trkpt lat="31.06751187" lon="-6.09912998"><ele>1929.022461</ele><time>1989-12-31T00:00:00Z</time></trkpt>
<trkpt lat="31.06746669" lon="-6.09911598"><ele>1929.503174</ele><time>1989-12-31T00:00:00Z</time></trkpt>
<trkpt lat="31.06712546" lon="-6.09921673"><ele>1936.713135</ele><time>1989-12-31T00:00:00Z</time></trkpt>
<trkpt lat="31.06627143" lon="-6.09980933"><ele>1949.691162</ele><time>1989-12-31T00:00:00Z</time></trkpt>
<trkpt lat="31.06633396" lon="-6.09973515"><ele>1949.210449</ele><time>1989-12-31T00:00:00Z</time></trkpt>
<trkpt lat="31.06629532" lon="-6.09969484"><ele>1949.210449</ele><time>1989-12-31T00:00:00Z</time></trkpt>
<trkpt lat="31.06630286" lon="-6.09960255"><ele>1947.768311</ele><time>1989-12-31T00:00:00Z</time></trkpt>
<trkpt lat="31.06631116" lon="-6.09959224"><ele>1949.691162</ele><time>1989-12-31T00:00:00Z</time></trkpt>
<trkpt lat="31.06613925" lon="-6.09962443"><ele>1949.210449</ele><time>1989-12-31T00:00:00Z</time></trkpt>
<trkpt lat="31.06610463" lon="-6.09964656"><ele>1950.171875</ele><time>1989-12-31T00:00:00Z</time></trkpt>
<trkpt lat="31.06611595" lon="-6.09964103"><ele>1953.055664</ele><time>1989-12-31T00:00:00Z</time></trkpt>
<trkpt lat="31.06612558" lon="-6.09977128"><ele>1952.574951</ele><time>1989-12-31T00:00:00Z</time></trkpt>
<trkpt lat="31.06604302" lon="-6.09993858"><ele>1951.61377</ele><time>1989-12-31T00:00:00Z</time></trkpt>
<trkpt lat="31.06586231" lon="-6.09991344"><ele>1945.36499</ele><time>1989-12-31T00:00:00Z</time></trkpt>
<trkpt lat="31.06580699" lon="-6.09995669"><ele>1943.923096</ele><time>1989-12-31T00:00:00Z</time></trkpt>
<trkpt lat="31.06580288" lon="-6.09988016"><ele>1942.96167</ele><time>1989-12-31T00:00:00Z</time></trkpt>
<trkpt lat="31.06560322" lon="-6.09992802"><ele>1938.155273</ele><time>1989-12-31T00:00:00Z</time></trkpt>
<trkpt lat="31.06554757" lon="-6.09990153"><ele>1936.713135</ele><time>1989-12-31T00:00:00Z</time></trkpt>
<trkpt lat="31.06552787" lon="-6.10006515"><ele>1929.022461</ele><time>1989-12-31T00:00:00Z</time></trkpt>
<trkpt lat="31.06552728" lon="-6.10038861"><ele>1922.77417</ele><time>1989-12-31T00:00:00Z</time></trkpt>
<trkpt lat="31.06547498" lon="-6.10040604"><ele>1920.851563</ele><time>1989-12-31T00:00:00Z</time></trkpt>
<trkpt lat="31.06542352" lon="-6.10040780"><ele>1919.890137</ele><time>1989-12-31T00:00:00Z</time></trkpt>
<trkpt lat="31.06517726" lon="-6.10009155"><ele>1915.564209</ele><time>1989-12-31T00:00:00Z</time></trkpt>
<trkpt lat="31.06511297" lon="-6.10015282"><ele>1913.160889</ele><time>1989-12-31T00:00:00Z</time></trkpt>
<trkpt lat="31.06503560" lon="-6.10011561"><ele>1910.757568</ele><time>1989-12-31T00:00:00Z</time></trkpt>
<trkpt lat="31.06446044" lon="-6.10030261"><ele>1900.18335</ele><time>1989-12-31T00:00:00Z</time></trkpt>
<trkpt lat="31.06428425" lon="-6.10028953"><ele>1898.260254</ele><time>1989-12-31T00:00:00Z</time></trkpt>
<trkpt lat="31.06395467" lon="-6.10045306"><ele>1901.144531</ele><time>1989-12-31T00:00:00Z</time></trkpt>
<trkpt lat="31.06381738" lon="-6.10001653"><ele>1907.393066</ele><time>1989-12-31T00:00:00Z</time></trkpt>
<trkpt lat="31.06355787" lon="-6.10041065"><ele>1914.12207</ele><time>1989-12-31T00:00:00Z</time></trkpt>
<trkpt lat="31.06351965" lon="-6.10068533"><ele>1918.928955</ele><time>1989-12-31T00:00:00Z</time></trkpt>
<trkpt lat="31.06360347" lon="-6.10088398"><ele>1923.254883</ele><time>1989-12-31T00:00:00Z</time></trkpt>
<trkpt lat="31.06345863" lon="-6.10090979"><ele>1927.100098</ele><time>1989-12-31T00:00:00Z</time></trkpt>
<trkpt lat="31.06328420" lon="-6.10063361"><ele>1932.387451</ele><time>1989-12-31T00:00:00Z</time></trkpt>
<trkpt lat="31.06322444" lon="-6.10061307"><ele>1935.27124</ele><time>1989-12-31T00:00:00Z</time></trkpt>
<trkpt lat="31.06319913" lon="-6.10065892"><ele>1935.751953</ele><time>1989-12-31T00:00:00Z</time></trkpt>
<trkpt lat="31.06271365" lon="-6.10071978"><ele>1941.039063</ele><time>1989-12-31T00:00:00Z</time></trkpt>
<trkpt lat="31.06247971" lon="-6.10078767"><ele>1940.55835</ele><time>1989-12-31T00:00:00Z</time></trkpt>
<trkpt lat="31.06129250" lon="-6.10073511"><ele>1937.674561</ele><time>1989-12-31T00:00:00Z</time></trkpt>
<trkpt lat="31.05970295" lon="-6.10080326"><ele>1936.713135</ele><time>1989-12-31T00:00:00Z</time></trkpt>
<trkpt lat="31.05930330" lon="-6.10073344"><ele>1937.674561</ele><time>1989-12-31T00:00:00Z</time></trkpt>
<trkpt lat="31.05820418" lon="-6.10089689"><ele>1938.155273</ele><time>1989-12-31T00:00:00Z</time></trkpt>
<trkpt lat="31.05769473" lon="-6.10082463"><ele>1936.232666</ele><time>1989-12-31T00:00:00Z</time></trkpt>
<trkpt lat="31.05732425" lon="-6.10092371"><ele>1936.232666</ele><time>1989-12-31T00:00:00Z</time></trkpt>
<trkpt lat="31.05688244" lon="-6.10086068"><ele>1937.193848</ele><time>1989-12-31T00:00:00Z</time></trkpt>
<trkpt lat="31.05643024" lon="-6.10083763"><ele>1937.193848</ele><time>1989-12-31T00:00:00Z</time></trkpt>
<trkpt lat="31.05623921" lon="-6.10096679"><ele>1938.155273</ele><time>1989-12-31T00:00:00Z</time></trkpt>
<trkpt lat="31.05585868" lon="-6.10114281"><ele>1938.155273</ele><time>1989-12-31T00:00:00Z</time></trkpt>
<trkpt lat="31.05565726" lon="-6.10137164"><ele>1934.310059</ele><time>1989-12-31T00:00:00Z</time></trkpt>
<trkpt lat="31.05534595" lon="-6.10144280"><ele>1940.077881</ele><time>1989-12-31T00:00:00Z</time></trkpt>
<trkpt lat="31.05534788" lon="-6.10147825"><ele>1940.55835</ele><time>1989-12-31T00:00:00Z</time></trkpt>
<trkpt lat="31.05522341" lon="-6.10145202"><ele>1940.55835</ele><time>1989-12-31T00:00:00Z</time></trkpt>
<trkpt lat="31.05473709" lon="-6.10115723"><ele>1937.193848</ele><time>1989-12-31T00:00:00Z</time></trkpt>
<trkpt lat="31.05444415" lon="-6.10091977"><ele>1936.713135</ele><time>1989-12-31T00:00:00Z</time></trkpt>
<trkpt lat="31.05244565" lon="-6.10126820"><ele>1942.481201</ele><time>1989-12-31T00:00:00Z</time></trkpt>
<trkpt lat="31.05088896" lon="-6.10144615"><ele>1951.133057</ele><time>1989-12-31T00:00:00Z</time></trkpt>
<trkpt lat="31.05064102" lon="-6.10134901"><ele>1951.133057</ele><time>1989-12-31T00:00:00Z</time></trkpt>
<trkpt lat="31.04982806" lon="-6.10159376"><ele>1957.381592</ele><time>1989-12-31T00:00:00Z</time></trkpt>
<trkpt lat="31.04959069" lon="-6.10148261"><ele>1957.862305</ele><time>1989-12-31T00:00:00Z</time></trkpt>
<trkpt lat="31.04858905" lon="-6.10145495"><ele>1968.436768</ele><time>1989-12-31T00:00:00Z</time></trkpt>
<trkpt lat="31.04830725" lon="-6.10140265"><ele>1972.762695</ele><time>1989-12-31T00:00:00Z</time></trkpt>
<trkpt lat="31.04765824" lon="-6.10114030"><ele>1981.414551</ele><time>1989-12-31T00:00:00Z</time></trkpt>
<trkpt lat="31.04730503" lon="-6.10090988"><ele>1987.182373</ele><time>1989-12-31T00:00:00Z</time></trkpt>
<trkpt lat="31.04703530" lon="-6.10096386"><ele>1992.950195</ele><time>1989-12-31T00:00:00Z</time></trkpt>
<trkpt lat="31.04681276" lon="-6.10082237"><ele>1998.237549</ele><time>1989-12-31T00:00:00Z</time></trkpt>
<trkpt lat="31.04655434" lon="-6.10141790"><ele>2008.812012</ele><time>1989-12-31T00:00:00Z</time></trkpt>
<trkpt lat="31.04650481" lon="-6.10142243"><ele>2009.292725</ele><time>1989-12-31T00:00:00Z</time></trkpt>
<trkpt lat="31.04640657" lon="-6.10158412"><ele>2014.580078</ele><time>1989-12-31T00:00:00Z</time></trkpt>
<trkpt lat="31.04630037" lon="-6.10183113"><ele>2018.425293</ele><time>1989-12-31T00:00:00Z</time></trkpt>
<trkpt lat="31.04622317" lon="-6.10214093"><ele>2023.231934</ele><time>1989-12-31T00:00:00Z</time></trkpt>
<trkpt lat="31.04611245" lon="-6.10224327"><ele>2025.154297</ele><time>1989-12-31T00:00:00Z</time></trkpt>
<trkpt lat="31.04594079" lon="-6.10259389"><ele>2030.922607</ele><time>1989-12-31T00:00:00Z</time></trkpt>
<trkpt lat="31.04588580" lon="-6.10287929"><ele>2032.844971</ele><time>1989-12-31T00:00:00Z</time></trkpt>
<trkpt lat="31.04581799" lon="-6.10308423"><ele>2036.209717</ele><time>1989-12-31T00:00:00Z</time></trkpt>
<trkpt lat="31.04581908" lon="-6.10338799"><ele>2041.977539</ele><time>1989-12-31T00:00:00Z</time></trkpt>
<trkpt lat="31.04585060" lon="-6.10369066"><ele>2044.380859</ele><time>1989-12-31T00:00:00Z</time></trkpt>
<trkpt lat="31.04596979" lon="-6.10411487"><ele>2043.419434</ele><time>1989-12-31T00:00:00Z</time></trkpt>
<trkpt lat="31.04595068" lon="-6.10413574"><ele>2043.419434</ele><time>1989-12-31T00:00:00Z</time></trkpt>
<trkpt lat="31.04596300" lon="-6.10406390"><ele>2046.78418</ele><time>1989-12-31T00:00:00Z</time></trkpt>
<trkpt lat="31.04596015" lon="-6.10407731"><ele>2044.380859</ele><time>1989-12-31T00:00:00Z</time></trkpt>
<trkpt lat="31.04592746" lon="-6.10410548"><ele>2045.822998</ele><time>1989-12-31T00:00:00Z</time></trkpt>
<trkpt lat="31.04560258" lon="-6.10472473"><ele>2043.419434</ele><time>1989-12-31T00:00:00Z</time></trkpt>
<trkpt lat="31.04539689" lon="-6.10488039"><ele>2043.900146</ele><time>1989-12-31T00:00:00Z</time></trkpt>
<trkpt lat="31.04516278" lon="-6.10491869"><ele>2046.303711</ele><time>1989-12-31T00:00:00Z</time></trkpt>
<trkpt lat="31.04485760" lon="-6.10496521"><ele>2041.496826</ele><time>1989-12-31T00:00:00Z</time></trkpt>
<trkpt lat="31.04457462" lon="-6.10514433"><ele>2032.364502</ele><time>1989-12-31T00:00:00Z</time></trkpt>
<trkpt lat="31.04449474" lon="-6.10513092"><ele>2031.403076</ele><time>1989-12-31T00:00:00Z</time></trkpt>
<trkpt lat="31.04427489" lon="-6.10522572"><ele>2026.596436</ele><time>1989-12-31T00:00:00Z</time></trkpt>
<trkpt lat="31.04414145" lon="-6.10522907"><ele>2024.193115</ele><time>1989-12-31T00:00:00Z</time></trkpt>
<trkpt lat="31.04371715" lon="-6.10533846"><ele>2013.138184</ele><time>1989-12-31T00:00:00Z</time></trkpt>
<trkpt lat="31.04337224" lon="-6.10530895"><ele>2007.370117</ele><time>1989-12-31T00:00:00Z</time></trkpt>
<trkpt lat="31.04306764" lon="-6.10515908"><ele>2003.524902</ele><time>1989-12-31T00:00:00Z</time></trkpt>
<trkpt lat="31.04276874" lon="-6.10489740"><ele>1996.795654</ele><time>1989-12-31T00:00:00Z</time></trkpt>
<trkpt lat="31.04240840" lon="-6.10501106"><ele>1995.834229</ele><time>1989-12-31T00:00:00Z</time></trkpt>
<trkpt lat="31.04204094" lon="-6.10494493"><ele>1991.027588</ele><time>1989-12-31T00:00:00Z</time></trkpt>
<trkpt lat="31.04163316" lon="-6.10481367"><ele>1987.663086</ele><time>1989-12-31T00:00:00Z</time></trkpt>
<trkpt lat="31.04090368" lon="-6.10491274"><ele>1983.337158</ele><time>1989-12-31T00:00:00Z</time></trkpt>
<trkpt lat="31.04038090" lon="-6.10474762"><ele>1980.934082</ele><time>1989-12-31T00:00:00Z</time></trkpt>
<trkpt lat="31.03990615" lon="-6.10499094"><ele>1976.60791</ele><time>1989-12-31T00:00:00Z</time></trkpt>
<trkpt lat="31.03968018" lon="-6.10521876"><ele>1976.127197</ele><time>1989-12-31T00:00:00Z</time></trkpt>
<trkpt lat="31.03935630" lon="-6.10540174"><ele>1979.010986</ele><time>1989-12-31T00:00:00Z</time></trkpt>
<trkpt lat="31.03901692" lon="-6.10575437"><ele>1981.895264</ele><time>1989-12-31T00:00:00Z</time></trkpt>
<trkpt lat="31.03878734" lon="-6.10592050"><ele>1983.817871</ele><time>1989-12-31T00:00:00Z</time></trkpt>
<trkpt lat="31.03848207" lon="-6.10594673"><ele>1985.259766</ele><time>1989-12-31T00:00:00Z</time></trkpt>
<trkpt lat="31.03843136" lon="-6.10607020"><ele>1986.70166</ele><time>1989-12-31T00:00:00Z</time></trkpt>
<trkpt lat="31.03845650" lon="-6.10609358"><ele>1983.817871</ele><time>1989-12-31T00:00:00Z</time></trkpt>
<trkpt lat="31.03836707" lon="-6.10608696"><ele>1982.856445</ele><time>1989-12-31T00:00:00Z</time></trkpt>
<trkpt lat="31.03832600" lon="-6.10614119"><ele>1981.895264</ele><time>1989-12-31T00:00:00Z</time></trkpt>
<trkpt lat="31.03824637" lon="-6.10615402"><ele>1979.972412</ele><time>1989-12-31T00:00:00Z</time></trkpt>
<trkpt lat="31.03823338" lon="-6.10622442"><ele>1980.453369</ele><time>1989-12-31T00:00:00Z</time></trkpt>
<trkpt lat="31.03814998" lon="-6.10617958"><ele>1978.049805</ele><time>1989-12-31T00:00:00Z</time></trkpt>
<trkpt lat="31.03798117" lon="-6.10618897"><ele>1973.243408</ele><time>1989-12-31T00:00:00Z</time></trkpt>
<trkpt lat="31.03793766" lon="-6.10628670"><ele>1970.840088</ele><time>1989-12-31T00:00:00Z</time></trkpt>
<trkpt lat="31.03761781" lon="-6.10646381"><ele>1964.591553</ele><time>1989-12-31T00:00:00Z</time></trkpt>
<trkpt lat="31.03715370" lon="-6.10690679"><ele>1962.668701</ele><time>1989-12-31T00:00:00Z</time></trkpt>
<trkpt lat="31.03699931" lon="-6.10702054"><ele>1959.304199</ele><time>1989-12-31T00:00:00Z</time></trkpt>
<trkpt lat="31.03649489" lon="-6.10763870"><ele>1955.939453</ele><time>1989-12-31T00:00:00Z</time></trkpt>
<trkpt lat="31.03588594" lon="-6.10774850"><ele>1950.652344</ele><time>1989-12-31T00:00:00Z</time></trkpt>
<trkpt lat="31.03554606" lon="-6.10778052"><ele>1945.845703</ele><time>1989-12-31T00:00:00Z</time></trkpt>
<trkpt lat="31.03538487" lon="-6.10789980"><ele>1945.36499</ele><time>1989-12-31T00:00:00Z</time></trkpt>
<trkpt lat="31.03526442" lon="-6.10789904"><ele>1943.923096</ele><time>1989-12-31T00:00:00Z</time></trkpt>
<trkpt lat="31.03512813" lon="-6.10779142"><ele>1942.481201</ele><time>1989-12-31T00:00:00Z</time></trkpt>
<trkpt lat="31.03435750" lon="-6.10796920"><ele>1929.983887</ele><time>1989-12-31T00:00:00Z</time></trkpt>
<trkpt lat="31.03357882" lon="-6.10813340"><ele>1924.696777</ele><time>1989-12-31T00:00:00Z</time></trkpt>
<trkpt lat="31.03335712" lon="-6.10812536"><ele>1924.696777</ele><time>1989-12-31T00:00:00Z</time></trkpt>
<trkpt lat="31.03323005" lon="-6.10821043"><ele>1922.77417</ele><time>1989-12-31T00:00:00Z</time></trkpt>
<trkpt lat="31.03317155" lon="-6.10833557"><ele>1921.812744</ele><time>1989-12-31T00:00:00Z</time></trkpt>
<trkpt lat="31.03308639" lon="-6.10827992"><ele>1919.890137</ele><time>1989-12-31T00:00:00Z</time></trkpt>
<trkpt lat="31.03297030" lon="-6.10829945"><ele>1917.486816</ele><time>1989-12-31T00:00:00Z</time></trkpt>
<trkpt lat="31.03299351" lon="-6.10831420"><ele>1917.486816</ele><time>1989-12-31T00:00:00Z</time></trkpt>
<trkpt lat="31.03282412" lon="-6.10844496"><ele>1915.564209</ele><time>1989-12-31T00:00:00Z</time></trkpt>
<trkpt lat="31.03249865" lon="-6.10859483"><ele>1915.564209</ele><time>1989-12-31T00:00:00Z</time></trkpt>
<trkpt lat="31.03239597" lon="-6.10887252"><ele>1917.486816</ele><time>1989-12-31T00:00:00Z</time></trkpt>
<trkpt lat="31.03246369" lon="-6.10882633"><ele>1917.006348</ele><time>1989-12-31T00:00:00Z</time></trkpt>
<trkpt lat="31.03243930" lon="-6.10885240"><ele>1916.525635</ele><time>1989-12-31T00:00:00Z</time></trkpt>
<trkpt lat="31.03246897" lon="-6.10884712"><ele>1913.641357</ele><time>1989-12-31T00:00:00Z</time></trkpt>
<trkpt lat="31.03238138" lon="-6.10880538"><ele>1915.564209</ele><time>1989-12-31T00:00:00Z</time></trkpt>
<trkpt lat="31.03244634" lon="-6.10886204"><ele>1916.525635</ele><time>1989-12-31T00:00:00Z</time></trkpt>
<trkpt lat="31.03244601" lon="-6.10886070"><ele>1906.912354</ele><time>1989-12-31T00:00:00Z</time></trkpt>
<trkpt lat="31.03245129" lon="-6.10886171"><ele>1918.928955</ele><time>1989-12-31T00:00:00Z</time></trkpt>
<trkpt lat="31.03244953" lon="-6.10886615"><ele>1909.315674</ele><time>1989-12-31T00:00:00Z</time></trkpt>
<trkpt lat="31.03266612" lon="-6.10876892"><ele>1919.409668</ele><time>1989-12-31T00:00:00Z</time></trkpt>
<trkpt lat="31.03270501" lon="-6.10874645"><ele>1918.448242</ele><time>1989-12-31T00:00:00Z</time></trkpt>
<trkpt lat="31.03270425" lon="-6.10882843"><ele>1917.486816</ele><time>1989-12-31T00:00:00Z</time></trkpt>
<trkpt lat="31.03265774" lon="-6.10893882"><ele>1917.486816</ele><time>1989-12-31T00:00:00Z</time></trkpt>
<trkpt lat="31.03257098" lon="-6.10901250"><ele>1918.448242</ele><time>1989-12-31T00:00:00Z</time></trkpt>
<trkpt lat="31.03247962" lon="-6.10903094"><ele>1917.486816</ele><time>1989-12-31T00:00:00Z</time></trkpt>
<trkpt lat="31.03242908" lon="-6.10899137"><ele>1917.006348</ele><time>1989-12-31T00:00:00Z</time></trkpt>
<trkpt lat="31.03245414" lon="-6.10885810"><ele>1915.564209</ele><time>1989-12-31T00:00:00Z</time></trkpt>
<trkpt lat="31.03244215" lon="-6.10883455"><ele>1918.928955</ele><time>1989-12-31T00:00:00Z</time></trkpt>
<trkpt lat="31.03215826" lon="-6.10937325"><ele>1919.890137</ele><time>1989-12-31T00:00:00Z</time></trkpt>
<trkpt lat="31.03205700" lon="-6.10965162"><ele>1918.448242</ele><time>1989-12-31T00:00:00Z</time></trkpt>
<trkpt lat="31.03205357" lon="-6.10974424"><ele>1917.486816</ele><time>1989-12-31T00:00:00Z</time></trkpt>
<trkpt lat="31.03179415" lon="-6.10998211"><ele>1912.199463</ele><time>1989-12-31T00:00:00Z</time></trkpt>
<trkpt lat="31.03174562" lon="-6.11005638"><ele>1912.199463</ele><time>1989-12-31T00:00:00Z</time></trkpt>
<trkpt lat="31.03122133" lon="-6.11041227"><ele>1905.470459</ele><time>1989-12-31T00:00:00Z</time></trkpt>
<trkpt lat="31.03101036" lon="-6.11024145"><ele>1902.586426</ele><time>1989-12-31T00:00:00Z</time></trkpt>
<trkpt lat="31.03084180" lon="-6.11019719"><ele>1902.586426</ele><time>1989-12-31T00:00:00Z</time></trkpt>
<trkpt lat="31.03028138" lon="-6.11023449"><ele>1904.989746</ele><time>1989-12-31T00:00:00Z</time></trkpt>
<trkpt lat="31.02966632" lon="-6.11010692"><ele>1903.547852</ele><time>1989-12-31T00:00:00Z</time></trkpt>
<trkpt lat="31.02954620" lon="-6.11017079"><ele>1905.950928</ele><time>1989-12-31T00:00:00Z</time></trkpt>
<trkpt lat="31.02941159" lon="-6.11013114"><ele>1906.431641</ele><time>1989-12-31T00:00:00Z</time></trkpt>
<trkpt lat="31.02907665" lon="-6.10969730"><ele>1909.796143</ele><time>1989-12-31T00:00:00Z</time></trkpt>
<trkpt lat="31.02904866" lon="-6.10946705"><ele>1907.393066</ele><time>1989-12-31T00:00:00Z</time></trkpt>
<trkpt lat="31.02914773" lon="-6.10943486"><ele>1905.470459</ele><time>1989-12-31T00:00:00Z</time></trkpt>
<trkpt lat="31.02889510" lon="-6.10927426"><ele>1900.18335</ele><time>1989-12-31T00:00:00Z</time></trkpt>
<trkpt lat="31.02831130" lon="-6.10915340"><ele>1898.260254</ele><time>1989-12-31T00:00:00Z</time></trkpt>
<trkpt lat="31.02826403" lon="-6.10912473"><ele>1897.299072</ele><time>1989-12-31T00:00:00Z</time></trkpt>
<trkpt lat="31.02832354" lon="-6.10900763"><ele>1895.857178</ele><time>1989-12-31T00:00:00Z</time></trkpt>
<trkpt lat="31.02827978" lon="-6.10894443"><ele>1894.895752</ele><time>1989-12-31T00:00:00Z</time></trkpt>
<trkpt lat="31.02810343" lon="-6.10885869"><ele>1894.415039</ele><time>1989-12-31T00:00:00Z</time></trkpt>
<trkpt lat="31.02761376" lon="-6.10943084"><ele>1892.973145</ele><time>1989-12-31T00:00:00Z</time></trkpt>
<trkpt lat="31.02734688" lon="-6.10966536"><ele>1886.724609</ele><time>1989-12-31T00:00:00Z</time></trkpt>
<trkpt lat="31.02739474" lon="-6.10951046"><ele>1885.763428</ele><time>1989-12-31T00:00:00Z</time></trkpt>
<trkpt lat="31.02750965" lon="-6.10925540"><ele>1880.956787</ele><time>1989-12-31T00:00:00Z</time></trkpt>
<trkpt lat="31.02705083" lon="-6.10955363"><ele>1875.188721</ele><time>1989-12-31T00:00:00Z</time></trkpt>
<trkpt lat="31.02689710" lon="-6.10963519"><ele>1876.150146</ele><time>1989-12-31T00:00:00Z</time></trkpt>
<trkpt lat="31.02680038" lon="-6.10972957"><ele>1877.111572</ele><time>1989-12-31T00:00:00Z</time></trkpt>
<trkpt lat="31.02677012" lon="-6.10979578"><ele>1874.227539</ele><time>1989-12-31T00:00:00Z</time></trkpt>
<trkpt lat="31.02656912" lon="-6.10992218"><ele>1874.227539</ele><time>1989-12-31T00:00:00Z</time></trkpt>
<trkpt lat="31.02639369" lon="-6.11022192"><ele>1870.863037</ele><time>1989-12-31T00:00:00Z</time></trkpt>
<trkpt lat="31.02635924" lon="-6.11028009"><ele>1867.498047</ele><time>1989-12-31T00:00:00Z</time></trkpt>
<trkpt lat="31.02600778" lon="-6.11048075"><ele>1862.69165</ele><time>1989-12-31T00:00:00Z</time></trkpt>
<trkpt lat="31.02594274" lon="-6.11047304"><ele>1857.885254</ele><time>1989-12-31T00:00:00Z</time></trkpt>
<trkpt lat="31.02559607" lon="-6.11037020"><ele>1855.001221</ele><time>1989-12-31T00:00:00Z</time></trkpt>
<trkpt lat="31.02531930" lon="-6.11045687"><ele>1853.078613</ele><time>1989-12-31T00:00:00Z</time></trkpt>
<trkpt lat="31.02523766" lon="-6.11038185"><ele>1852.117188</ele><time>1989-12-31T00:00:00Z</time></trkpt>
<trkpt lat="31.02522299" lon="-6.11039517"><ele>1851.636475</ele><time>1989-12-31T00:00:00Z</time></trkpt>
<trkpt lat="31.02495963" lon="-6.11030985"><ele>1844.907227</ele><time>1989-12-31T00:00:00Z</time></trkpt>
<trkpt lat="31.02480196" lon="-6.11040976"><ele>1845.868652</ele><time>1989-12-31T00:00:00Z</time></trkpt>
<trkpt lat="31.02484538" lon="-6.11039341"><ele>1843.465332</ele><time>1989-12-31T00:00:00Z</time></trkpt>
<trkpt lat="31.02474614" lon="-6.11043105"><ele>1844.907227</ele><time>1989-12-31T00:00:00Z</time></trkpt>
<trkpt lat="31.02462418" lon="-6.11037254"><ele>1836.736084</ele><time>1989-12-31T00:00:00Z</time></trkpt>
<trkpt lat="31.02447256" lon="-6.11031655"><ele>1832.890625</ele><time>1989-12-31T00:00:00Z</time></trkpt>
<trkpt lat="31.02427399" lon="-6.11015009"><ele>1830.006836</ele><time>1989-12-31T00:00:00Z</time></trkpt>
<trkpt lat="31.02419788" lon="-6.10991397"><ele>1826.642334</ele><time>1989-12-31T00:00:00Z</time></trkpt>
<trkpt lat="31.02397182" lon="-6.11000567"><ele>1824.719727</ele><time>1989-12-31T00:00:00Z</time></trkpt>
<trkpt lat="31.02394349" lon="-6.11008446"><ele>1823.758301</ele><time>1989-12-31T00:00:00Z</time></trkpt>
<trkpt lat="31.02378021" lon="-6.11010265"><ele>1822.797119</ele><time>1989-12-31T00:00:00Z</time></trkpt>
<trkpt lat="31.02371869" lon="-6.11008697"><ele>1820.393799</ele><time>1989-12-31T00:00:00Z</time></trkpt>
<trkpt lat="31.02360972" lon="-6.11016417"><ele>1819.912842</ele><time>1989-12-31T00:00:00Z</time></trkpt>
<trkpt lat="31.02348676" lon="-6.11018403"><ele>1816.54834</ele><time>1989-12-31T00:00:00Z</time></trkpt>
<trkpt lat="31.02342063" lon="-6.11032527"><ele>1814.14502</ele><time>1989-12-31T00:00:00Z</time></trkpt>
<trkpt lat="31.02329465" lon="-6.11038998"><ele>1813.664307</ele><time>1989-12-31T00:00:00Z</time></trkpt>
<trkpt lat="31.02300539" lon="-6.11031957"><ele>1806.935303</ele><time>1989-12-31T00:00:00Z</time></trkpt>
<trkpt lat="31.02296566" lon="-6.11026207"><ele>1804.051514</ele><time>1989-12-31T00:00:00Z</time></trkpt>
<trkpt lat="31.02298150" lon="-6.10980408"><ele>1804.531982</ele><time>1989-12-31T00:00:00Z</time></trkpt>
<trkpt lat="31.02280489" lon="-6.10981775"><ele>1805.973877</ele><time>1989-12-31T00:00:00Z</time></trkpt>
<trkpt lat="31.02260096" lon="-6.10992311"><ele>1805.493408</ele><time>1989-12-31T00:00:00Z</time></trkpt>
<trkpt lat="31.02211674" lon="-6.11036818"><ele>1802.609131</ele><time>1989-12-31T00:00:00Z</time></trkpt>
<trkpt lat="31.02157116" lon="-6.11061570"><ele>1799.244629</ele><time>1989-12-31T00:00:00Z</time></trkpt>
<trkpt lat="31.02106523" lon="-6.11063431"><ele>1800.686523</ele><time>1989-12-31T00:00:00Z</time></trkpt>
<trkpt lat="31.02105400" lon="-6.11063708"><ele>1797.322021</ele><time>1989-12-31T00:00:00Z</time></trkpt>
<trkpt lat="31.02086331" lon="-6.11067773"><ele>1796.36084</ele><time>1989-12-31T00:00:00Z</time></trkpt>
<trkpt lat="31.02042468" lon="-6.11098442"><ele>1793.95752</ele><time>1989-12-31T00:00:00Z</time></trkpt>
<trkpt lat="31.01959806" lon="-6.11113362"><ele>1792.996094</ele><time>1989-12-31T00:00:00Z</time></trkpt>
<trkpt lat="31.01948658" lon="-6.11104259"><ele>1791.554199</ele><time>1989-12-31T00:00:00Z</time></trkpt>
<trkpt lat="31.01897621" lon="-6.11100554"><ele>1786.266846</ele><time>1989-12-31T00:00:00Z</time></trkpt>
<trkpt lat="31.01879071" lon="-6.11091577"><ele>1786.266846</ele><time>1989-12-31T00:00:00Z</time></trkpt>
<trkpt lat="31.01883589" lon="-6.11094243"><ele>1782.9021</ele><time>1989-12-31T00:00:00Z</time></trkpt>
<trkpt lat="31.01869784" lon="-6.11099037"><ele>1782.421631</ele><time>1989-12-31T00:00:00Z</time></trkpt>
<trkpt lat="31.01843490" lon="-6.11102558"><ele>1782.421631</ele><time>1989-12-31T00:00:00Z</time></trkpt>
<trkpt lat="31.01840800" lon="-6.11103815"><ele>1783.863525</ele><time>1989-12-31T00:00:00Z</time></trkpt>
<trkpt lat="31.01827187" lon="-6.11102139"><ele>1782.421631</ele><time>1989-12-31T00:00:00Z</time></trkpt>
<trkpt lat="31.01821136" lon="-6.11100295"><ele>1781.460205</ele><time>1989-12-31T00:00:00Z</time></trkpt>
<trkpt lat="31.01807825" lon="-6.11086322"><ele>1780.018311</ele><time>1989-12-31T00:00:00Z</time></trkpt>
<trkpt lat="31.01792838" lon="-6.11080513"><ele>1778.576416</ele><time>1989-12-31T00:00:00Z</time></trkpt>
<trkpt lat="31.01719933" lon="-6.11088074"><ele>1782.9021</ele><time>1989-12-31T00:00:00Z</time></trkpt>
<trkpt lat="31.01699213" lon="-6.11087118"><ele>1782.421631</ele><time>1989-12-31T00:00:00Z</time></trkpt>
<trkpt lat="31.01687704" lon="-6.11054764"><ele>1779.056885</ele><time>1989-12-31T00:00:00Z</time></trkpt>
<trkpt lat="31.01641101" lon="-6.11028395"><ele>1775.692383</ele><time>1989-12-31T00:00:00Z</time></trkpt>
<trkpt lat="31.01568203" lon="-6.10928541"><ele>1771.366211</ele><time>1989-12-31T00:00:00Z</time></trkpt>
<trkpt lat="31.01517342" lon="-6.10861234"><ele>1773.769775</ele><time>1989-12-31T00:00:00Z</time></trkpt>
<trkpt lat="31.01496723" lon="-6.10803307"><ele>1773.769775</ele><time>1989-12-31T00:00:00Z</time></trkpt>
<trkpt lat="31.01474443" lon="-6.10755798"><ele>1774.731201</ele><time>1989-12-31T00:00:00Z</time></trkpt>
<trkpt lat="31.01441176" lon="-6.10729052"><ele>1777.134521</ele><time>1989-12-31T00:00:00Z</time></trkpt>
<trkpt lat="31.01433783" lon="-6.10713101"><ele>1777.134521</ele><time>1989-12-31T00:00:00Z</time></trkpt>
<trkpt lat="31.01422970" lon="-6.10672985"><ele>1776.653809</ele><time>1989-12-31T00:00:00Z</time></trkpt>
<trkpt lat="31.01411277" lon="-6.10566007"><ele>1778.576416</ele><time>1989-12-31T00:00:00Z</time></trkpt>
<trkpt lat="31.01428343" lon="-6.10454050"><ele>1781.460205</ele><time>1989-12-31T00:00:00Z</time></trkpt>
<trkpt lat="31.01422417" lon="-6.10426767"><ele>1781.940918</ele><time>1989-12-31T00:00:00Z</time></trkpt>
<trkpt lat="31.01426147" lon="-6.10351439"><ele>1780.979736</ele><time>1989-12-31T00:00:00Z</time></trkpt>
<trkpt lat="31.01423691" lon="-6.10308808"><ele>1783.382813</ele><time>1989-12-31T00:00:00Z</time></trkpt>
<trkpt lat="31.01427253" lon="-6.10276094"><ele>1783.382813</ele><time>1989-12-31T00:00:00Z</time></trkpt>
<trkpt lat="31.01428100" lon="-6.10170197"><ele>1783.382813</ele><time>1989-12-31T00:00:00Z</time></trkpt>
<trkpt lat="31.01434973" lon="-6.10152938"><ele>1784.824951</ele><time>1989-12-31T00:00:00Z</time></trkpt>
<trkpt lat="31.01467528" lon="-6.10087845"><ele>1782.421631</ele><time>1989-12-31T00:00:00Z</time></trkpt>
<trkpt lat="31.01471116" lon="-6.10084098"><ele>1785.30542</ele><time>1989-12-31T00:00:00Z</time></trkpt>
<trkpt lat="31.01522874" lon="-6.09930315"><ele>1788.67041</ele><time>1989-12-31T00:00:00Z</time></trkpt>
<trkpt lat="31.01539177" lon="-6.09867409"><ele>1788.67041</ele><time>1989-12-31T00:00:00Z</time></trkpt>
<trkpt lat="31.01563225" lon="-6.09816187"><ele>1791.073486</ele><time>1989-12-31T00:00:00Z</time></trkpt>
<trkpt lat="31.01584406" lon="-6.09791544"><ele>1790.112305</ele><time>1989-12-31T00:00:00Z</time></trkpt>
<trkpt lat="31.01578924" lon="-6.09772467"><ele>1792.034912</ele><time>1989-12-31T00:00:00Z</time></trkpt>
<trkpt lat="31.01589276" lon="-6.09750842"><ele>1792.034912</ele><time>1989-12-31T00:00:00Z</time></trkpt>
<trkpt lat="31.01603969" lon="-6.09743952"><ele>1792.996094</ele><time>1989-12-31T00:00:00Z</time></trkpt>
<trkpt lat="31.01615796" lon="-6.09727900"><ele>1792.996094</ele><time>1989-12-31T00:00:00Z</time></trkpt>
<trkpt lat="31.01626885" lon="-6.09710977"><ele>1793.476807</ele><time>1989-12-31T00:00:00Z</time></trkpt>
<trkpt lat="31.01632585" lon="-6.09701623"><ele>1796.841309</ele><time>1989-12-31T00:00:00Z</time></trkpt>
<trkpt lat="31.01666858" lon="-6.09641558"><ele>1799.725342</ele><time>1989-12-31T00:00:00Z</time></trkpt>
<trkpt lat="31.01740276" lon="-6.09573883"><ele>1804.051514</ele><time>1989-12-31T00:00:00Z</time></trkpt>
<trkpt lat="31.01750401" lon="-6.09558192"><ele>1805.493408</ele><time>1989-12-31T00:00:00Z</time></trkpt>
<trkpt lat="31.01765287" lon="-6.09546541"><ele>1805.012695</ele><time>1989-12-31T00:00:00Z</time></trkpt>
<trkpt lat="31.01774759" lon="-6.09544530"><ele>1803.570557</ele><time>1989-12-31T00:00:00Z</time></trkpt>
<trkpt lat="31.01771515" lon="-6.09548947"><ele>1806.45459</ele><time>1989-12-31T00:00:00Z</time></trkpt>
<trkpt lat="31.01779914" lon="-6.09540087"><ele>1804.051514</ele><time>1989-12-31T00:00:00Z</time></trkpt>
<trkpt lat="31.01780249" lon="-6.09538034"><ele>1805.973877</ele><time>1989-12-31T00:00:00Z</time></trkpt>
<trkpt lat="31.01777382" lon="-6.09543256"><ele>1805.012695</ele><time>1989-12-31T00:00:00Z</time></trkpt>
<trkpt lat="31.01776410" lon="-6.09542719"><ele>1807.896729</ele><time>1989-12-31T00:00:00Z</time></trkpt>
<trkpt lat="31.01773778" lon="-6.09543574"><ele>1802.609131</ele><time>1989-12-31T00:00:00Z</time></trkpt>
<trkpt lat="31.01767902" lon="-6.09538855"><ele>1804.051514</ele><time>1989-12-31T00:00:00Z</time></trkpt>
<trkpt lat="31.01778707" lon="-6.09516408"><ele>1803.570557</ele><time>1989-12-31T00:00:00Z</time></trkpt>
<trkpt lat="31.01922800" lon="-6.09362944"><ele>1808.377197</ele><time>1989-12-31T00:00:00Z</time></trkpt>
<trkpt lat="31.01962346" lon="-6.09304723"><ele>1806.45459</ele><time>1989-12-31T00:00:00Z</time></trkpt>
<trkpt lat="31.02025973" lon="-6.09206135"><ele>1806.935303</ele><time>1989-12-31T00:00:00Z</time></trkpt>
<trkpt lat="31.02058562" lon="-6.09168157"><ele>1805.012695</ele><time>1989-12-31T00:00:00Z</time></trkpt>
<trkpt lat="31.02245176" lon="-6.08822378"><ele>1798.763916</ele><time>1989-12-31T00:00:00Z</time></trkpt>
<trkpt lat="31.02373201" lon="-6.08617801"><ele>1792.034912</ele><time>1989-12-31T00:00:00Z</time></trkpt>
<trkpt lat="31.02415077" lon="-6.08568775"><ele>1787.228027</ele><time>1989-12-31T00:00:00Z</time></trkpt>
<trkpt lat="31.02458789" lon="-6.08389151"><ele>1787.70874</ele><time>1989-12-31T00:00:00Z</time></trkpt>
<trkpt lat="31.02449896" lon="-6.08363670"><ele>1787.70874</ele><time>1989-12-31T00:00:00Z</time></trkpt>
<trkpt lat="31.02417726" lon="-6.08349564"><ele>1784.824951</ele><time>1989-12-31T00:00:00Z</time></trkpt>
<trkpt lat="31.02421364" lon="-6.08314485"><ele>1785.30542</ele><time>1989-12-31T00:00:00Z</time></trkpt>
<trkpt lat="31.02448228" lon="-6.08213190"><ele>1782.9021</ele><time>1989-12-31T00:00:00Z</time></trkpt>
<trkpt lat="31.02495871" lon="-6.08136320"><ele>1778.095703</ele><time>1989-12-31T00:00:00Z</time></trkpt>
<trkpt lat="31.02498368" lon="-6.08133528"><ele>1779.537598</ele><time>1989-12-31T00:00:00Z</time></trkpt>
<trkpt lat="31.02530664" lon="-6.07964683"><ele>1774.731201</ele><time>1989-12-31T00:00:00Z</time></trkpt>
<trkpt lat="31.02526699" lon="-6.07957131"><ele>1775.692383</ele><time>1989-12-31T00:00:00Z</time></trkpt>
<trkpt lat="31.02528619" lon="-6.07960803"><ele>1774.731201</ele><time>1989-12-31T00:00:00Z</time></trkpt>
<trkpt lat="31.02523556" lon="-6.07962529"><ele>1772.808594</ele><time>1989-12-31T00:00:00Z</time></trkpt>
<trkpt lat="31.02532231" lon="-6.07956503"><ele>1774.250488</ele><time>1989-12-31T00:00:00Z</time></trkpt>
<trkpt lat="31.02543748" lon="-6.07911232"><ele>1767.520996</ele><time>1989-12-31T00:00:00Z</time></trkpt>
<trkpt lat="31.02543421" lon="-6.07888525"><ele>1765.11792</ele><time>1989-12-31T00:00:00Z</time></trkpt>
<trkpt lat="31.02552876" lon="-6.07862399"><ele>1766.559814</ele><time>1989-12-31T00:00:00Z</time></trkpt>
<trkpt lat="31.02571450" lon="-6.07828695"><ele>1765.11792</ele><time>1989-12-31T00:00:00Z</time></trkpt>
<trkpt lat="31.02581098" lon="-6.07787197"><ele>1762.7146</ele><time>1989-12-31T00:00:00Z</time></trkpt>
<trkpt lat="31.02579832" lon="-6.07773165"><ele>1761.272705</ele><time>1989-12-31T00:00:00Z</time></trkpt>
<trkpt lat="31.02592355" lon="-6.07736863"><ele>1760.311279</ele><time>1989-12-31T00:00:00Z</time></trkpt>
<trkpt lat="31.02651933" lon="-6.07582611"><ele>1752.139893</ele><time>1989-12-31T00:00:00Z</time></trkpt>
<trkpt lat="31.02665269" lon="-6.07571891"><ele>1750.217529</ele><time>1989-12-31T00:00:00Z</time></trkpt>
<trkpt lat="31.02670390" lon="-6.07556342"><ele>1749.256104</ele><time>1989-12-31T00:00:00Z</time></trkpt>
<trkpt lat="31.02679225" lon="-6.07506973"><ele>1747.814209</ele><time>1989-12-31T00:00:00Z</time></trkpt>
<trkpt lat="31.02679283" lon="-6.07476471"><ele>1746.852783</ele><time>1989-12-31T00:00:00Z</time></trkpt>
<trkpt lat="31.02690943" lon="-6.07427211"><ele>1746.372314</ele><time>1989-12-31T00:00:00Z</time></trkpt>
<trkpt lat="31.02716390" lon="-6.07375544"><ele>1749.736816</ele><time>1989-12-31T00:00:00Z</time></trkpt>
<trkpt lat="31.02733942" lon="-6.07334004"><ele>1749.256104</ele><time>1989-12-31T00:00:00Z</time></trkpt>
<trkpt lat="31.02757026" lon="-6.07306603"><ele>1746.852783</ele><time>1989-12-31T00:00:00Z</time></trkpt>
<trkpt lat="31.02767017" lon="-6.07300728"><ele>1746.372314</ele><time>1989-12-31T00:00:00Z</time></trkpt>
<trkpt lat="31.02775969" lon="-6.07287191"><ele>1746.852783</ele><time>1989-12-31T00:00:00Z</time></trkpt>
<trkpt lat="31.02776639" lon="-6.07267804"><ele>1744.930176</ele><time>1989-12-31T00:00:00Z</time></trkpt>
<trkpt lat="31.02795281" lon="-6.07246555"><ele>1742.5271</ele><time>1989-12-31T00:00:00Z</time></trkpt>
<trkpt lat="31.02818674" lon="-6.07239498"><ele>1743.488281</ele><time>1989-12-31T00:00:00Z</time></trkpt>
<trkpt lat="31.02842202" lon="-6.07210035"><ele>1740.123779</ele><time>1989-12-31T00:00:00Z</time></trkpt>
<trkpt lat="31.02848782" lon="-6.07189726"><ele>1740.123779</ele><time>1989-12-31T00:00:00Z</time></trkpt>
<trkpt lat="31.02864222" lon="-6.07160071"><ele>1742.046387</ele><time>1989-12-31T00:00:00Z</time></trkpt>
<trkpt lat="31.02872235" lon="-6.07149602"><ele>1738.200928</ele><time>1989-12-31T00:00:00Z</time></trkpt>
<trkpt lat="31.02877717" lon="-6.07129209"><ele>1739.162109</ele><time>1989-12-31T00:00:00Z</time></trkpt>
<trkpt lat="31.02915217" lon="-6.07071022"><ele>1738.681641</ele><time>1989-12-31T00:00:00Z</time></trkpt>
<trkpt lat="31.02935309" lon="-6.07061852"><ele>1737.239502</ele><time>1989-12-31T00:00:00Z</time></trkpt>
<trkpt lat="31.02947379" lon="-6.07049136"><ele>1736.758789</ele><time>1989-12-31T00:00:00Z</time></trkpt>
<trkpt lat="31.02963447" lon="-6.07011938"><ele>1735.797607</ele><time>1989-12-31T00:00:00Z</time></trkpt>
<trkpt lat="31.02967529" lon="-6.06997378"><ele>1734.355713</ele><time>1989-12-31T00:00:00Z</time></trkpt>
<trkpt lat="31.02964478" lon="-6.06990857"><ele>1733.394287</ele><time>1989-12-31T00:00:00Z</time></trkpt>
<trkpt lat="31.02989129" lon="-6.06901355"><ele>1732.913574</ele><time>1989-12-31T00:00:00Z</time></trkpt>
<trkpt lat="31.02992733" lon="-6.06850326"><ele>1728.107178</ele><time>1989-12-31T00:00:00Z</time></trkpt>
<trkpt lat="31.02993638" lon="-6.06840863"><ele>1729.549072</ele><time>1989-12-31T00:00:00Z</time></trkpt>
<trkpt lat="31.03005038" lon="-6.06800278"><ele>1726.18457</ele><time>1989-12-31T00:00:00Z</time></trkpt>
<trkpt lat="31.03005440" lon="-6.06791804"><ele>1725.223145</ele><time>1989-12-31T00:00:00Z</time></trkpt>
<trkpt lat="31.02999916" lon="-6.06791535"><ele>1723.781006</ele><time>1989-12-31T00:00:00Z</time></trkpt>
<trkpt lat="31.03000168" lon="-6.06780740"><ele>1722.819824</ele><time>1989-12-31T00:00:00Z</time></trkpt>
<trkpt lat="31.03007041" lon="-6.06741495"><ele>1721.858398</ele><time>1989-12-31T00:00:00Z</time></trkpt>
<trkpt lat="31.03005432" lon="-6.06589548"><ele>1721.377686</ele><time>1989-12-31T00:00:00Z</time></trkpt>
<trkpt lat="31.03001056" lon="-6.06563866"><ele>1721.858398</ele><time>1989-12-31T00:00:00Z</time></trkpt>
<trkpt lat="31.02994954" lon="-6.06562810"><ele>1723.300537</ele><time>1989-12-31T00:00:00Z</time></trkpt>
<trkpt lat="31.02995357" lon="-6.06563087"><ele>1718.974609</ele><time>1989-12-31T00:00:00Z</time></trkpt>
</trkseg></trk></gpx>